Precipitable_Water
0.42 0.42 0.52 0.56 0.44 0.48 0.41 0.35 0.38 0.36 0.38 0.36 0.38 0.31 0.30 0.42 0.27 0.17 0.75 0.95 1.03 0.95 0.98 1.03 1.06 1.12 1.13 1.12 1.09 1.01 0.97 0.96 0.94 0.91 0.89 0.96 1.04 1.10 1.11 1.13 1.10 1.09 1.09 1.03 1.01 1.02 1.02 1.03 1.11
0.44 0.46 0.51 0.47 0.39 0.35 0.38 0.42 0.39 0.43 0.49 0.50 0.47 0.46 0.40 0.42 0.46 0.52 0.68 0.97 1.00 0.91 0.90 0.95 1.02 1.10 1.13 1.10 1.10 1.04 0.98 0.99 0.97 0.94 0.93 0.96 1.06 1.10 1.12 1.08 1.05 1.01 0.99 1.00 1.04 0.98 0.97 1.10 1.20
0.44 0.49 0.35 0.38 0.37 0.29 0.32 0.46 0.46 0.50 0.57 0.54 0.54 0.55 0.55 0.58 0.56 0.56 0.79 0.89 0.93 0.82 0.87 0.90 1.00 1.08 1.13 1.10 1.10 1.06 1.00 0.99 0.98 0.96 0.94 0.96 1.04 1.08 1.05 1.05 1.02 0.96 0.94 0.98 0.98 0.94 0.99 1.12 1.16
0.39 0.38 0.41 0.30 0.29 0.34 0.39 0.48 0.48 0.48 0.57 0.55 0.54 0.51 0.75 0.83 0.54 0.72 0.77 0.80 0.79 0.79 0.85 0.90 0.99 1.08 1.12 1.10 1.10 1.06 1.02 0.99 0.97 0.99 0.96 0.96 1.01 1.07 1.05 1.02 1.03 0.99 0.97 0.98 0.94 0.91 0.97 1.08 1.14
0.40 0.33 0.23 0.23 0.27 0.30 0.39 0.51 0.52 0.46 0.50 0.50 0.49 0.50 0.64 0.86 0.77 0.78 0.69 0.73 0.69 0.75 0.84 0.91 0.99 1.08 1.10 1.09 1.08 1.03 1.02 1.00 0.98 0.98 0.96 0.96 0.97 1.03 1.07 1.05 1.00 0.97 0.98 0.98 0.94 0.94 0.99 1.09 1.18
0.25 0.29 0.18 0.20 0.22 0.27 0.34 0.42 0.46 0.47 0.50 0.55 0.52 0.53 0.71 0.88 0.73 0.79 0.73 0.69 0.72 0.72 0.83 0.92 1.01 1.07 1.08 1.06 1.05 1.01 0.98 1.01 0.99 0.95 0.95 0.94 0.94 0.96 1.01 1.04 1.03 1.01 1.00 1.00 0.97 0.96 0.96 1.07 1.17
0.21 0.20 0.16 0.21 0.21 0.24 0.28 0.38 0.34 0.39 0.48 0.52 0.63 0.51 0.73 0.76 0.82 0.77 0.79 0.76 0.74 0.80 0.83 0.93 1.03 1.05 1.05 1.01 1.03 1.00 0.96 0.99 1.00 0.96 0.94 0.92 0.90 0.94 0.97 1.01 1.04 1.01 1.01 0.98 1.00 1.00 0.98 1.00 1.13
0.24 0.21 0.16 0.18 0.22 0.22 0.28 0.31 0.37 0.39 0.44 0.68 0.66 0.49 0.57 0.74 0.88 0.81 0.89 0.86 0.84 0.82 0.81 0.86 0.99 1.05 1.05 1.04 1.04 1.02 0.98 0.98 0.97 0.97 0.94 0.89 0.90 0.95 0.99 1.04 1.06 1.05 1.04 1.03 1.03 1.06 1.06 1.02 1.01
0.27 0.17 0.14 0.17 0.21 0.24 0.29 0.28 0.33 0.39 0.49 0.63 0.65 0.55 0.70 0.87 0.92 0.80 0.87 0.89 0.85 0.86 0.82 0.84 0.88 0.97 1.03 1.04 1.05 1.06 1.03 1.02 0.97 0.96 0.94 0.93 0.92 0.97 1.01 1.04 1.05 1.04 1.04 1.05 1.08 1.10 1.12 1.14 1.12
0.21 0.15 0.15 0.21 0.23 0.24 0.25 0.27 0.29 0.31 0.36 0.46 0.50 0.61 0.71 0.81 0.82 0.74 0.77 0.77 0.75 0.77 0.90 0.97 0.94 0.89 0.96 1.03 1.05 1.07 1.08 1.09 1.02 0.95 0.94 0.92 0.94 0.97 1.02 1.05 1.07 1.04 1.03 1.05 1.09 1.10 1.13 1.16 1.14
0.21 0.15 0.18 0.22 0.24 0.26 0.23 0.25 0.27 0.25 0.31 0.37 0.34 0.49 0.62 0.71 0.79 0.76 0.75 0.69 0.67 0.83 0.95 1.02 1.00 0.99 0.99 0.97 1.04 1.06 1.08 1.10 1.09 1.02 0.95 0.91 0.95 1.00 1.02 1.05 1.09 1.08 1.06 1.06 1.09 1.10 1.12 1.10 1.08
0.18 0.20 0.20 0.21 0.24 0.24 0.22 0.24 0.21 0.23 0.24 0.32 0.50 0.55 0.63 0.68 0.70 0.71 0.67 0.66 0.76 0.86 0.99 1.05 1.05 0.98 1.01 1.06 1.01 1.03 1.03 1.08 1.08 1.07 1.02 0.94 0.91 0.95 0.97 1.00 1.04 1.05 1.04 1.02 1.05 1.04 1.06 1.07 1.02
0.19 0.18 0.20 0.21 0.24 0.24 0.24 0.22 0.21 0.21 0.23 0.27 0.43 0.59 0.60 0.62 0.64 0.68 0.66 0.71 0.85 0.86 0.96 1.08 1.07 0.98 0.99 1.02 1.03 1.01 1.01 1.03 1.06 1.08 1.09 1.03 0.96 0.92 0.97 0.98 1.01 1.02 1.03 1.02 1.00 1.01 1.02 1.00 1.01
0.21 0.21 0.20 0.21 0.22 0.23 0.21 0.21 0.22 0.21 0.22 0.22 0.24 0.42 0.54 0.56 0.58 0.65 0.74 0.73 0.83 0.89 0.96 1.08 1.08 1.04 0.97 0.98 1.00 0.94 0.99 1.03 1.04 1.05 1.09 1.09 1.05 1.02 1.00 1.01 1.03 1.04 1.02 0.99 0.95 0.95 0.94 0.93 0.99
0.22 0.18 0.19 0.19 0.21 0.22 0.23 0.18 0.18 0.22 0.23 0.20 0.20 0.19 0.31 0.47 0.55 0.54 0.57 0.59 0.72 0.82 0.91 0.92 1.00 1.10 0.99 0.94 0.99 0.97 0.95 0.99 1.00 1.01 1.07 1.09 1.09 1.10 1.10 1.08 1.08 1.09 1.11 1.13 1.10 0.96 0.95 1.00 1.09
0.17 0.18 0.13 0.18 0.20 0.21 0.21 0.13 0.17 0.21 0.20 0.18 0.15 0.14 0.15 0.16 0.23 0.43 0.43 0.51 0.53 0.69 0.78 0.83 0.99 1.06 1.06 0.98 1.03 1.02 0.97 0.94 0.96 1.00 1.05 1.08 1.10 1.11 1.16 1.16 1.15 1.19 1.19 1.20 1.14 1.05 1.03 1.04 1.10
0.16 0.11 0.12 0.15 0.21 0.19 0.18 0.13 0.17 0.17 0.15 0.13 0.13 0.15 0.15 0.16 0.17 0.18 0.21 0.26 0.28 0.42 0.63 0.78 0.92 1.02 1.07 1.08 1.11 1.10 1.09 1.08 1.03 1.06 1.07 1.09 1.13 1.17 1.17 1.21 1.26 1.28 1.26 1.24 1.18 1.15 1.14 1.08 1.07
0.11 0.12 0.13 0.13 0.15 0.19 0.15 0.14 0.14 0.14 0.14 0.15 0.14 0.14 0.14 0.14 0.15 0.17 0.21 0.23 0.29 0.46 0.62 0.73 0.85 0.96 1.07 1.15 1.18 1.20 1.15 1.15 1.17 1.13 1.15 1.20 1.18 1.21 1.21 1.26 1.31 1.35 1.33 1.33 1.31 1.29 1.29 1.22 1.18
0.16 0.14 0.12 0.14 0.16 0.17 0.15 0.15 0.15 0.17 0.17 0.16 0.16 0.16 0.15 0.15 0.18 0.19 0.22 0.25 0.35 0.54 0.65 0.73 0.84 0.92 1.08 1.11 1.10 1.09 1.05 1.11 1.12 1.13 1.19 1.26 1.31 1.32 1.30 1.28 1.35 1.39 1.35 1.35 1.34 1.30 1.29 1.36 1.39
0.19 0.15 0.12 0.14 0.15 0.15 0.15 0.15 0.19 0.18 0.17 0.17 0.17 0.17 0.17 0.16 0.17 0.18 0.20 0.21 0.26 0.34 0.62 0.73 0.80 0.90 0.98 1.06 1.08 1.15 1.16 1.20 1.19 1.21 1.21 1.30 1.37 1.40 1.40 1.35 1.36 1.45 1.41 1.40 1.43 1.38 1.34 1.40 1.42
0.19 0.16 0.14 0.12 0.13 0.15 0.17 0.14 0.16 0.18 0.17 0.18 0.19 0.19 0.18 0.17 0.16 0.16 0.18 0.19 0.22 0.27 0.47 0.70 0.75 0.80 0.90 1.04 1.16 1.21 1.28 1.27 1.26 1.23 1.28 1.35 1.42 1.44 1.45 1.46 1.44 1.46 1.51 1.41 1.42 1.43 1.43 1.31 1.44
0.16 0.19 0.19 0.17 0.15 0.09 0.18 0.10 0.14 0.17 0.16 0.18 0.19 0.18 0.17 0.15 0.16 0.17 0.18 0.18 0.20 0.24 0.37 0.64 0.72 0.76 0.89 1.03 1.04 1.04 0.98 0.96 1.05 1.21 1.32 1.38 1.49 1.51 1.54 1.52 1.54 1.53 1.52 1.50 1.48 1.51 1.45 1.42 1.32
0.19 0.23 0.21 0.20 0.17 0.16 0.14 0.14 0.12 0.17 0.15 0.17 0.18 0.17 0.17 0.16 0.17 0.17 0.18 0.18 0.22 0.28 0.37 0.52 0.68 0.79 0.92 0.96 0.98 0.99 0.96 1.02 1.13 1.25 1.30 1.42 1.52 1.56 1.63 1.62 1.59 1.57 1.56 1.55 1.55 1.53 1.50 1.48 1.42
0.26 0.25 0.23 0.24 0.22 0.17 0.14 0.14 0.10 0.13 0.16 0.17 0.19 0.18 0.17 0.15 0.17 0.19 0.22 0.26 0.29 0.42 0.47 0.54 0.65 0.75 0.84 0.90 0.96 0.94 0.96 1.00 1.09 1.20 1.27 1.38 1.49 1.58 1.70 1.67 1.63 1.65 1.61 1.58 1.61 1.60 1.58 1.55 1.52
0.32 0.26 0.19 0.17 0.17 0.14 0.18 0.16 0.12 0.16 0.16 0.16 0.17 0.17 0.15 0.13 0.18 0.24 0.26 0.31 0.40 0.46 0.53 0.61 0.70 0.72 0.80 0.83 0.89 0.95 1.00 1.06 1.12 1.21 1.27 1.33 1.40 1.52 1.57 1.64 1.63 1.62 1.64 1.62 1.65 1.66 1.66 1.63 1.54
0.28 0.28 0.22 0.17 0.17 0.16 0.21 0.14 0.14 0.18 0.20 0.19 0.17 0.15 0.15 0.15 0.19 0.28 0.33 0.41 0.47 0.51 0.54 0.60 0.65 0.64 0.69 0.65 0.69 0.85 0.98 1.06 1.15 1.25 1.33 1.37 1.40 1.49 1.59 1.61 1.60 1.61 1.63 1.67 1.68 1.65 1.67 1.67 1.62
0.25 0.27 0.32 0.27 0.26 0.23 0.21 0.18 0.20 0.20 0.19 0.18 0.16 0.16 0.15 0.18 0.23 0.33 0.40 0.48 0.54 0.56 0.58 0.60 0.65 0.68 0.63 0.67 0.72 0.78 0.90 1.02 1.13 1.27 1.37 1.34 1.39 1.44 1.50 1.55 1.54 1.60 1.66 1.62 1.61 1.64 1.59 1.64 1.65
0.30 0.28 0.26 0.32 0.23 0.21 0.24 0.23 0.18 0.18 0.16 0.20 0.25 0.21 0.18 0.21 0.31 0.40 0.47 0.55 0.62 0.67 0.69 0.72 0.71 0.57 0.59 0.69 0.76 0.86 0.96 1.08 1.17 1.26 1.29 1.29 1.40 1.51 1.53 1.57 1.59 1.59 1.60 1.61 1.58 1.56 1.56 1.62 1.63
0.28 0.26 0.30 0.32 0.30 0.21 0.19 0.20 0.25 0.22 0.22 0.21 0.24 0.27 0.24 0.28 0.37 0.44 0.56 0.64 0.69 0.74 0.75 0.71 0.65 0.54 0.58 0.67 0.76 0.85 0.94 1.02 1.11 1.15 1.20 1.24 1.32 1.35 1.38 1.44 1.46 1.46 1.52 1.58 1.56 1.53 1.56 1.59 1.54
0.43 0.32 0.28 0.25 0.24 0.28 0.24 0.19 0.27 0.23 0.22 0.18 0.20 0.31 0.33 0.42 0.46 0.54 0.60 0.65 0.67 0.67 0.65 0.63 0.57 0.52 0.60 0.68 0.71 0.77 0.87 0.94 0.97 1.02 1.13 1.24 1.21 1.36 1.41 1.40 1.39 1.42 1.45 1.47 1.47 1.44 1.50 1.46 1.32
Wind_Speed
4 4 4 3 1 3 1 2 5 4 5 6 5 4 4 7 5 3 4 5 6 7 7 8 8 9 9 9 10 11 11 12 12 13 13 14 14 14 14 14 15 15 15 16 16 16 17 17 17
6 4 5 4 3 1 2 4 5 3 5 8 8 5 5 7 7 6 5 4 6 7 7 7 8 8 9 9 9 10 11 11 12 12 13 13 13 13 14 14 14 15 15 16 16 16 17 17 17
7 6 7 6 4 3 3 6 5 7 5 3 4 5 5 5 6 5 4 7 7 7 7 7 8 8 8 9 9 9 10 10 11 11 11 12 12 12 13 13 13 14 14 15 15 15 15 16 15
9 8 8 7 5 3 4 6 5 4 1 3 3 5 4 5 5 5 8 7 6 6 7 7 8 8 8 8 8 8 9 9 10 10 10 11 11 11 12 12 12 13 13 13 13 13 13 13 13
9 9 8 7 8 6 6 8 7 5 3 2 0 2 3 4 5 7 7 6 6 6 6 7 7 7 7 7 7 8 8 8 9 9 9 9 10 10 10 11 11 11 12 12 12 12 12 11 11
12 11 9 10 9 8 6 9 8 5 4 3 2 1 1 3 5 5 6 5 5 5 6 7 7 7 7 6 6 7 7 7 8 8 8 8 8 9 10 10 10 11 11 11 11 11 10 10 9
14 12 13 11 10 8 8 9 7 6 6 5 3 1 1 2 3 4 4 4 4 4 5 6 7 6 6 5 6 6 7 7 7 8 8 8 8 8 9 9 10 10 10 10 10 10 9 8 8
15 14 13 11 10 11 9 8 7 6 6 5 5 4 4 5 4 4 3 3 3 3 4 6 6 6 6 5 5 5 7 8 8 8 8 8 7 7 8 8 9 9 9 9 9 8 8 7 7
18 16 15 14 10 8 7 8 8 7 5 6 7 5 5 7 6 5 3 2 2 3 4 5 6 7 6 4 4 4 5 7 9 9 9 9 8 8 8 8 8 8 9 8 8 7 6 6 5
21 19 20 18 13 11 9 9 10 8 8 7 6 4 6 8 8 6 5 4 5 5 6 6 6 7 7 6 5 4 5 6 8 10 10 10 10 9 9 9 9 8 9 8 7 6 6 5 4
23 23 21 21 19 16 13 10 11 10 10 11 9 9 9 9 9 7 6 6 7 7 7 7 7 7 7 8 7 6 5 5 7 10 12 12 12 11 11 10 10 10 9 9 8 7 6 5 5
24 24 23 23 22 20 17 14 12 12 10 12 10 11 11 12 11 10 9 8 7 9 10 10 9 9 9 8 10 9 7 7 7 9 11 13 14 14 13 13 12 12 11 11 10 9 8 8 7
26 25 25 25 25 25 22 20 17 16 15 13 13 13 14 14 15 14 12 11 9 9 11 12 12 12 11 10 10 11 10 9 9 9 11 12 15 16 16 15 15 15 14 13 12 11 11 10 10
28 29 29 27 27 25 24 23 21 20 18 17 16 18 18 17 18 17 16 14 13 13 13 14 14 14 14 13 12 12 12 12 11 12 13 14 14 17 19 19 18 17 17 16 16 15 14 13 12
28 26 28 28 27 25 24 25 25 23 23 24 23 21 22 22 21 21 20 18 16 16 15 15 16 15 16 16 15 14 15 15 14 14 15 16 17 17 19 20 21 21 20 19 18 18 17 15 15
26 26 27 26 28 27 24 27 25 26 25 28 27 25 23 23 23 24 23 21 19 18 17 16 16 17 16 17 16 16 16 17 17 17 18 19 19 20 19 20 22 23 22 22 20 19 19 19 18
28 29 28 26 26 26 26 28 27 30 29 29 27 26 26 25 24 23 24 22 20 19 18 17 17 17 17 17 16 16 17 18 19 19 20 22 23 23 23 21 22 23 24 24 23 23 22 21 21
31 29 30 29 28 26 29 30 28 28 27 28 27 27 26 24 24 23 24 23 21 19 18 17 16 17 17 16 16 16 16 17 19 21 22 23 24 25 26 25 23 24 24 25 25 25 25 24 24
28 29 31 28 26 26 30 30 32 30 30 30 27 24 24 24 23 23 23 23 23 21 20 19 17 16 16 16 16 16 17 18 19 21 23 24 26 27 27 27 26 25 25 25 25 25 25 24 24
34 35 36 30 30 28 29 31 31 30 32 32 29 27 26 25 26 26 25 25 24 24 24 22 20 18 18 18 18 18 18 19 20 21 23 24 27 29 29 29 29 28 26 26 26 26 25 25 25
38 39 35 33 26 29 29 33 29 27 27 28 28 27 27 28 28 28 28 28 25 25 25 26 23 21 20 19 18 18 18 20 21 22 24 24 26 29 31 31 30 30 29 29 28 28 28 26 26
41 38 34 32 27 29 22 29 31 29 28 27 29 28 28 27 27 29 30 30 29 27 26 27 26 24 22 21 20 20 21 21 22 23 23 24 26 27 30 32 32 32 32 31 30 30 30 29 28
41 36 34 32 31 28 33 28 33 30 30 30 27 27 27 26 26 28 30 31 29 27 26 27 26 25 23 23 22 23 22 23 22 22 22 23 25 27 29 31 33 33 32 33 33 32 32 31 30
39 34 33 31 28 29 37 29 38 34 32 30 29 29 27 27 27 27 26 26 26 25 25 25 24 24 23 24 24 24 24 23 22 22 22 23 24 25 27 30 32 33 33 33 33 33 33 33 33
37 32 30 30 32 38 34 32 40 26 31 35 33 34 35 31 28 25 25 24 24 25 25 24 23 22 23 24 24 25 25 24 23 23 22 22 22 24 25 27 30 32 32 32 32 33 34 35 35
49 42 34 32 32 40 31 35 36 35 38 35 32 33 32 31 29 28 26 25 23 24 24 23 23 22 22 23 24 25 26 25 24 24 23 22 22 23 25 27 28 30 31 32 32 33 33 33 34
45 42 47 37 29 25 34 43 37 36 36 35 36 36 33 30 30 30 27 27 24 23 23 23 23 23 22 22 23 24 24 25 24 24 24 24 24 23 24 26 28 29 31 32 33 33 34 34 34
46 45 37 35 39 39 35 35 33 30 32 27 27 32 33 29 28 28 28 26 25 24 24 24 24 23 23 23 23 23 23 24 24 24 25 25 25 26 26 27 29 30 32 33 32 32 32 31 31
47 46 42 38 38 37 38 41 38 38 32 27 24 24 29 28 29 28 28 27 25 24 23 24 24 23 23 24 24 24 24 24 25 26 26 26 26 27 27 28 29 31 32 32 32 31 31 31 30
42 46 46 41 43 39 43 45 28 36 40 40 33 25 26 28 29 29 29 28 27 25 23 23 24 23 23 24 25 25 25 26 25 26 26 26 26 27 28 29 29 29 30 30 30 30 30 29 29
Wind_Direction
236 250 219 189 126 95 262 155 142 115 63 55 82 68 57 29 22 26 56 108 115 115 120 121 120 119 115 108 104 103 102 100 99 99 100 102 103 104 104 103 103 103 104 104 105 105 106 106 104
232 224 191 181 147 108 286 175 149 110 113 88 69 73 44 28 38 65 78 103 122 120 125 126 127 125 122 118 113 109 109 107 104 102 102 104 105 106 107 106 105 106 107 107 107 108 108 108 106
228 216 195 181 181 198 221 202 166 135 135 77 46 50 32 44 46 72 75 113 120 124 128 130 131 131 129 126 123 118 116 114 111 108 106 107 109 109 111 111 110 109 110 110 110 110 112 111 108
219 209 198 187 210 233 189 205 196 171 136 352 58 33 31 16 79 61 103 113 118 125 130 134 135 136 137 134 132 129 126 124 120 116 113 111 112 112 114 115 114 114 115 115 115 115 115 114 111
219 206 204 210 225 241 251 214 220 216 228 272 348 13 34 26 66 89 105 112 118 126 135 140 141 140 139 142 142 142 138 135 133 129 123 119 118 117 119 120 119 118 119 119 118 118 118 118 115
217 209 206 211 230 256 242 225 220 232 212 229 341 54 358 102 105 102 101 111 121 126 139 145 146 144 144 144 154 156 155 150 147 144 138 131 128 126 126 127 126 125 125 126 124 122 122 121 118
213 213 213 217 239 249 239 235 240 238 228 248 214 306 253 166 136 124 105 106 122 137 147 153 157 153 149 149 158 169 171 170 165 161 156 148 142 139 137 135 134 134 133 132 131 128 125 124 123
217 214 218 218 235 245 244 231 222 240 252 210 210 261 234 209 169 150 138 114 126 144 166 169 171 170 163 157 161 173 185 186 185 180 174 168 161 155 153 150 145 144 143 140 138 134 131 128 125
219 218 215 219 227 242 236 222 234 236 220 244 259 243 220 189 178 167 172 187 181 179 183 188 189 189 186 179 174 178 189 197 199 197 192 186 181 175 170 167 163 159 157 154 152 148 143 139 135
217 215 215 220 225 246 253 235 233 233 243 257 266 244 195 195 192 194 207 222 224 216 201 196 197 203 204 203 197 195 196 204 208 208 205 202 198 194 188 184 181 179 177 174 174 173 171 164 156
225 221 220 230 241 247 243 243 241 229 242 244 232 218 213 209 210 213 225 237 233 223 217 217 213 213 214 217 214 213 212 213 214 215 213 213 210 207 203 201 200 199 198 200 201 202 202 204 211
232 229 225 233 238 242 242 234 244 241 245 245 235 223 220 220 225 229 237 247 242 235 230 227 227 225 226 225 224 224 225 223 224 220 220 221 220 218 216 215 215 214 215 216 216 220 225 228 233
232 231 232 234 243 237 239 240 236 241 245 246 246 238 232 233 237 238 242 242 242 241 236 236 235 233 232 232 231 232 233 233 232 230 228 227 226 226 224 224 224 224 224 226 228 230 234 237 240
236 240 239 237 242 238 234 240 237 238 243 251 252 247 243 243 243 245 246 247 245 247 244 242 242 239 234 236 237 238 238 239 240 239 236 233 232 230 230 229 230 230 231 233 234 236 239 242 244
234 240 239 232 235 239 237 243 240 243 249 251 256 254 252 251 249 248 249 251 248 248 248 247 242 241 238 237 240 243 243 243 245 246 243 239 237 235 234 234 234 234 234 236 238 239 241 244 245
236 237 236 234 234 239 238 245 244 244 250 253 252 252 252 253 252 251 252 252 254 250 249 250 243 240 239 239 241 246 247 248 250 250 248 244 241 238 238 238 237 236 236 238 240 240 242 243 245
232 233 235 239 236 239 238 251 247 250 249 253 250 250 250 253 253 252 248 248 251 249 245 243 240 238 240 241 242 245 250 253 253 253 253 249 245 241 239 241 240 237 238 239 241 242 243 243 247
230 232 235 236 239 242 246 251 252 251 247 248 249 253 248 247 249 250 245 247 247 246 240 236 240 239 240 241 242 247 252 256 257 257 257 254 248 244 242 241 241 239 240 240 241 242 244 246 247
235 236 237 238 238 240 244 249 250 250 245 246 249 249 243 244 246 248 246 243 243 243 237 236 236 238 236 240 243 250 255 260 262 262 258 256 252 247 244 243 243 241 240 241 242 242 243 245 246
234 238 242 244 243 242 247 248 252 253 245 242 244 245 246 249 251 251 246 243 244 241 239 237 238 239 240 244 251 257 262 268 269 267 263 257 252 249 247 244 243 242 242 241 242 241 242 245 246
233 235 238 242 246 245 247 251 250 253 241 239 242 247 249 250 250 251 247 244 244 243 240 237 239 243 244 246 253 262 268 276 275 273 266 260 255 251 247 246 245 242 243 244 244 243 243 246 247
234 234 238 241 240 243 234 249 247 246 244 241 247 248 252 251 251 250 247 245 242 244 242 239 241 244 246 248 254 258 270 275 277 277 273 265 258 254 248 246 244 244 244 245 246 246 248 248 249
236 235 236 239 241 243 243 246 247 241 243 242 246 248 251 254 252 253 246 242 240 240 241 239 241 244 247 250 257 264 271 276 279 277 275 270 264 258 252 247 245 245 246 247 248 247 248 249 251
234 238 238 239 238 241 240 236 248 241 241 243 247 251 252 257 254 253 245 237 237 236 237 236 239 244 249 255 260 265 270 275 276 277 276 273 268 261 255 249 246 245 246 247 249 248 249 251 253
228 227 233 236 234 238 236 239 243 241 243 246 249 252 255 257 252 251 234 233 233 232 232 233 238 246 254 259 262 266 270 271 272 274 276 275 271 264 258 252 249 247 246 248 251 252 253 253 255
227 226 228 230 235 239 235 238 240 243 246 250 256 256 255 252 247 238 230 231 231 228 229 233 238 248 256 260 266 270 270 271 271 273 276 276 274 268 263 257 254 248 247 250 253 254 254 255 257
229 228 233 241 240 243 238 245 248 247 251 255 259 254 250 247 242 234 232 230 228 227 228 235 241 249 257 259 267 270 270 270 270 271 274 276 276 271 267 260 256 252 251 253 256 255 256 257 259
230 232 232 231 235 240 241 242 240 241 243 244 256 251 244 245 239 226 224 225 229 229 233 241 246 252 254 260 267 269 270 271 272 272 272 275 274 272 268 263 259 255 254 255 257 256 256 255 256
228 231 231 234 234 237 243 243 238 240 244 246 258 258 242 236 227 225 226 228 229 232 238 245 248 252 255 262 267 268 270 271 272 272 272 274 275 273 269 266 261 257 254 255 256 253 254 254 253
235 233 231 233 233 237 240 243 242 236 242 247 250 260 242 234 228 227 228 229 230 234 243 243 247 254 259 265 268 270 270 271 271 272 272 273 273 273 271 267 262 256 254 252 252 254 252 251 253